When you browse on this site, cookies collect data to enhance your experience and personalize the content and advertising you see.
Visit our Privacy Policy to learn more. By continuing to use the site, you agree to this use of cookies and data.
  • In Hungary
  • List of Countries
  • For 7 days
  • Water Temperature
  • Satellite Maps
  • Weather Map
  • News
  • Weather Widgets
  • user-avatar
    Login

    Hourly Weather Mamonovo

    Today, 17 January, Thursday

    Time Temperature Precipitation Wind Pressure Humidity
    00:00 -10°C° 0 mm 3 mps 730 mmHg 92%
    01:00 -12°C° 0 mm 3 mps 730 mmHg 94%
    02:00 -13°C° 0 mm 2 mps 730 mmHg 96%
    03:00 -12°C° 0 mm 2 mps 730 mmHg 96%
    04:00 -13°C° 0 mm 3 mps 730 mmHg 96%
    05:00 -13°C° 0 mm 3 mps 730 mmHg 96%
    06:00 -12°C° 0.1 mm 4 mps 729 mmHg 94%
    07:00 -11°C° 0.1 mm 4 mps 728 mmHg 93%
    08:00 -11°C° 0.1 mm 5 mps 728 mmHg 91%
    09:00 -10°C° 0.5 mm 6 mps 727 mmHg 91%
    10:00 -9°C° 0.5 mm 6 mps 726 mmHg 91%
    11:00 -6°C° 0.5 mm 6 mps 726 mmHg 90%
    12:00 -5°C° 0.3 mm 6 mps 725 mmHg 89%
    13:00 -3°C° 0.3 mm 7 mps 725 mmHg 88%
    14:00 -2°C° 0.3 mm 7 mps 724 mmHg 87%
    15:00 -2°C° 0.3 mm 7 mps 724 mmHg 87%
    16:00 -2°C° 0.3 mm 6 mps 723 mmHg 87%
    17:00 -2°C° 0.3 mm 6 mps 722 mmHg 87%
    18:00 -2°C° 0.6 mm 6 mps 722 mmHg 87%
    19:00 -2°C° 0.6 mm 6 mps 722 mmHg 87%
    20:00 -2°C° 0.6 mm 6 mps 721 mmHg 87%
    21:00 -2°C° 0.3 mm 6 mps 722 mmHg 87%
    22:00 -2°C° 0.3 mm 6 mps 722 mmHg 86%
    23:00 -2°C° 0.3 mm 6 mps 722 mmHg 86%

    Tomorrow, 18 January, Friday

    Time Temperature Precipitation Wind Pressure Humidity
    00:00 -2°C° 0.2 mm 6 mps 723 mmHg 86%
    01:00 -2°C° 0.2 mm 6 mps 724 mmHg 86%
    02:00 -2°C° 0.2 mm 6 mps 724 mmHg 85%
    03:00 -2°C° 0.6 mm 6 mps 725 mmHg 87%
    04:00 -1°C° 0.6 mm 5 mps 725 mmHg 89%
    05:00 -1°C° 0.6 mm 4 mps 726 mmHg 90%
    06:00 -2°C° 0.5 mm 4 mps 726 mmHg 91%
    07:00 -2°C° 0.5 mm 3 mps 727 mmHg 92%
    08:00 -4°C° 0.5 mm 3 mps 728 mmHg 93%
    09:00 -5°C° 0.3 mm 3 mps 728 mmHg 92%
    10:00 -6°C° 0.3 mm 3 mps 729 mmHg 91%
    11:00 -6°C° 0.3 mm 3 mps 729 mmHg 90%
    12:00 -7°C° 0.1 mm 3 mps 730 mmHg 91%
    13:00 -6°C° 0.1 mm 2 mps 730 mmHg 91%
    14:00 -6°C° 0.1 mm 2 mps 730 mmHg 91%
    15:00 -7°C° 0 mm 2 mps 730 mmHg 92%
    16:00 -7°C° 0 mm 1 mps 730 mmHg 93%
    17:00 -7°C° 0 mm 1 mps 730 mmHg 95%
    18:00 -8°C° 0.2 mm 1 mps 730 mmHg 94%
    19:00 -8°C° 0.2 mm 1 mps 730 mmHg 94%
    20:00 -8°C° 0.2 mm 1 mps 730 mmHg 94%
    21:00 -9°C° 0 mm 2 mps 730 mmHg 93%
    22:00 -9°C° 0 mm 2 mps 731 mmHg 92%
    23:00 -10°C° 0 mm 2 mps 732 mmHg 92%

    Day after tomorrow, 19 January, Saturday

    Time Temperature Precipitation Wind Pressure Humidity
    00:00 -10°C° 0 mm 3 mps 732 mmHg 92%
    01:00 -10°C° 0 mm 3 mps 733 mmHg 92%
    02:00 -11°C° 0 mm 4 mps 734 mmHg 93%
    03:00 -10°C° 0.1 mm 4 mps 734 mmHg 92%
    04:00 -10°C° 0.1 mm 4 mps 734 mmHg 91%
    05:00 -9°C° 0.1 mm 4 mps 734 mmHg 90%
    06:00 -10°C° 0 mm 4 mps 735 mmHg 90%
    07:00 -10°C° 0 mm 4 mps 735 mmHg 91%
    08:00 -10°C° 0 mm 4 mps 735 mmHg 91%
    09:00 -9°C° 0.1 mm 4 mps 736 mmHg 90%
    10:00 -8°C° 0.1 mm 4 mps 736 mmHg 89%
    11:00 -7°C° 0.1 mm 5 mps 736 mmHg 87%
    12:00 -8°C° 0.1 mm 5 mps 736 mmHg 88%
    13:00 -8°C° 0.1 mm 5 mps 737 mmHg 88%
    14:00 -8°C° 0.1 mm 5 mps 737 mmHg 88%
    15:00 -8°C° 0.1 mm 5 mps 737 mmHg 89%
    16:00 -8°C° 0.1 mm 4 mps 737 mmHg 89%
    17:00 -8°C° 0.1 mm 4 mps 737 mmHg 89%
    18:00 -8°C° 0 mm 4 mps 738 mmHg 90%
    19:00 -8°C° 0 mm 4 mps 738 mmHg 90%
    20:00 -8°C° 0 mm 4 mps 738 mmHg 90%
    21:00 -7°C° 0 mm 3 mps 738 mmHg 91%
    22:00 -8°C° 0 mm 3 mps 738 mmHg 91%
    23:00 -8°C° 0 mm 3 mps 739 mmHg 92%

    20 January, Sunday

    Time Temperature Precipitation Wind Pressure Humidity
    00:00 -8°C° 0 mm 3 mps 739 mmHg 92%
    01:00 -8°C° 0 mm 3 mps 739 mmHg 93%
    02:00 -9°C° 0 mm 3 mps 739 mmHg 93%
    03:00 -10°C° 0 mm 4 mps 739 mmHg 93%
    04:00 -10°C° 0 mm 4 mps 739 mmHg 93%
    05:00 -10°C° 0 mm 4 mps 739 mmHg 93%
    06:00 -10°C° 0 mm 4 mps 739 mmHg 93%
    07:00 -11°C° 0 mm 4 mps 739 mmHg 93%
    08:00 -11°C° 0 mm 4 mps 738 mmHg 93%
    09:00 -11°C° 0.2 mm 5 mps 738 mmHg 92%
    10:00 -10°C° 0.2 mm 5 mps 738 mmHg 91%
    11:00 -9°C° 0.2 mm 6 mps 738 mmHg 90%
    12:00 -7°C° 0.4 mm 5 mps 737 mmHg 90%
    13:00 -6°C° 0.4 mm 5 mps 737 mmHg 91%
    14:00 -6°C° 0.4 mm 5 mps 737 mmHg 91%
    15:00 -5°C° 0.3 mm 4 mps 737 mmHg 91%
    16:00 -6°C° 0.3 mm 3 mps 737 mmHg 90%
    17:00 -6°C° 0.3 mm 2 mps 737 mmHg 90%
    18:00 -6°C° 0.1 mm 2 mps 737 mmHg 91%
    19:00 -7°C° 0.1 mm 2 mps 737 mmHg 92%
    20:00 -8°C° 0.1 mm 2 mps 737 mmHg 94%
    21:00 -8°C° 0 mm 2 mps 737 mmHg 94%
    22:00 -8°C° 0 mm 2 mps 737 mmHg 95%
    23:00 -9°C° 0 mm 2 mps 738 mmHg 96%

    21 January, Monday

    Time Temperature Precipitation Wind Pressure Humidity
    00:00 -9°C° 0 mm 2 mps 738 mmHg 96%
    01:00 -10°C° 0 mm 2 mps 738 mmHg 96%
    02:00 -10°C° 0 mm 2 mps 738 mmHg 96%
    03:00 -10°C° 0 mm 2 mps 738 mmHg 96%
    04:00 -12°C° 0 mm 2 mps 738 mmHg 95%
    05:00 -12°C° 0 mm 2 mps 738 mmHg 95%
    06:00 -13°C° 0 mm 2 mps 738 mmHg 95%
    07:00 -14°C° 0 mm 2 mps 738 mmHg 96%
    08:00 -15°C° 0 mm 2 mps 739 mmHg 96%
    09:00 -15°C° 0 mm 2 mps 739 mmHg 95%
    10:00 -15°C° 0 mm 3 mps 739 mmHg 94%
    11:00 -15°C° 0 mm 3 mps 740 mmHg 94%
    12:00 -14°C° 0 mm 3 mps 740 mmHg 93%
    13:00 -14°C° 0 mm 3 mps 740 mmHg 93%
    14:00 -13°C° 0 mm 3 mps 740 mmHg 93%
    15:00 -14°C° 0 mm 3 mps 740 mmHg 93%
    16:00 -14°C° 0 mm 3 mps 740 mmHg 94%
    17:00 -14°C° 0 mm 3 mps 740 mmHg 94%
    18:00 -14°C° 0.1 mm 3 mps 740 mmHg 94%
    19:00 -13°C° 0.1 mm 2 mps 739 mmHg 95%
    20:00 -12°C° 0.1 mm 2 mps 739 mmHg 95%
    21:00 -12°C° 0 mm 2 mps 739 mmHg 95%
    22:00 -12°C° 0 mm 2 mps 739 mmHg 95%
    23:00 -12°C° 0 mm 2 mps 739 mmHg 95%

    22 January, Tuesday

    Time Temperature Precipitation Wind Pressure Humidity
    00:00 -13°C° 0 mm 3 mps 739 mmHg 95%
    01:00 -13°C° 0 mm 3 mps 740 mmHg 94%
    02:00 -13°C° 0 mm 3 mps 740 mmHg 94%
    03:00 -13°C° 0 mm 3 mps 740 mmHg 95%
    04:00 -12°C° 0 mm 2 mps 740 mmHg 95%
    05:00 -13°C° 0 mm 2 mps 740 mmHg 96%
    06:00 -13°C° 0 mm 2 mps 740 mmHg 95%
    07:00 -13°C° 0 mm 2 mps 740 mmHg 95%
    08:00 -13°C° 0 mm 2 mps 740 mmHg 95%
    09:00 -13°C° 0 mm 3 mps 740 mmHg 95%
    10:00 -13°C° 0 mm 3 mps 740 mmHg 94%
    11:00 -12°C° 0 mm 3 mps 741 mmHg 94%
    12:00 -10°C° 0.1 mm 3 mps 741 mmHg 93%
    13:00 -9°C° 0.1 mm 3 mps 741 mmHg 91%
    14:00 -10°C° 0.1 mm 4 mps 741 mmHg 89%
    15:00 -9°C° 0.1 mm 3 mps 741 mmHg 90%
    16:00 -10°C° 0.1 mm 3 mps 741 mmHg 90%
    17:00 -10°C° 0.1 mm 3 mps 741 mmHg 91%
    18:00 -12°C° 0 mm 3 mps 742 mmHg 92%
    19:00 -13°C° 0 mm 3 mps 742 mmHg 93%
    20:00 -12°C° 0 mm 2 mps 742 mmHg 94%
    21:00 -13°C° 0 mm 2 mps 743 mmHg 95%
    22:00 -14°C° 0 mm 2 mps 743 mmHg 95%
    23:00 -16°C° 0 mm 2 mps 743 mmHg 96%
    Show more